Regional Weather Roundup
Issued by NWS

Home | Current Version | Previous Version | Graphics & Text | Print | Product List | Glossary On
Versions: 1 2 3 4 5 6 7 8 9 10 11 12 13 14 15 16 17 18 19 20 21 22 23 24 25 26 27 28 29 30 31 32 33 34 35 36 37 38 39 40 41 42 43 44 45 46 47 48 49 50
000
ASUS44 KMEG 312110
RWRTN
TENNESSEE HOURLY STATE WEATHER ROUNDUP
NATIONAL WEATHER SERVICE MEMPHIS TN
400 PM CDT MON AUG 31 2015

TNZ002-004-019-021-049-052-054-088>092-312200-
WEST TENNESSEE

CITY           SKY/WX    TMP DP  RH WIND       PRES   REMARKS
MEMPHIS INTL   PTSUNNY   86  70  58 S6        30.04F HX  90
NWS MEMPHIS      N/A     89 N/A N/A MISG        N/A
JACKSON        FAIR      86  68  54 NE5       30.06F
DYERSBURG      FAIR      86  66  51 SE8       30.06F
UNION CITY     SUNNY     88  66  48 SE5       30.05S HX  90
PARIS          SUNNY     84  64  51 VRB3      30.08F
LEXINGTON      MOSUNNY   86  64  48 SE6       30.06F
$$

TNZ008-025-027-028-033-062-065-066-312200-
NORTH MIDDLE TENNESSEE

CITY           SKY/WX    TMP DP  RH WIND       PRES   REMARKS
NASHVILLE      FAIR      88  62  41 VRB3      30.08F
CLARKSVILLE    FAIR      86  63  45 SE7       30.06F
SMYRNA         FAIR      93  64  38 VRB5      30.08F HX  94
COOKEVILLE     SUNNY     88  68  51 NW3       30.09F HX  91
CROSSVILLE     FAIR      80  64  58 CALM      30.14F
$$

TNZ061-075-076-078-094-096-097-312200-
SOUTH MIDDLE TENNESSEE

CITY           SKY/WX    TMP DP  RH WIND       PRES   REMARKS
FAYETTEVILLE     N/A     81  64  57 CALM      30.09F
TULLAHOMA      CLOUDY    81  64  57 E7        30.11F
WINCHESTER     PTSUNNY   82  66  57 SE5       30.09F
MCMINNVILLE    PTSUNNY   84  68  58 E3        30.10F
COLUMBIA       MOSUNNY   88  66  48 E5        30.07F HX  90
SHELBYVILLE    MOSUNNY   86  66  51 SE6       30.09F
$$

TNZ017-018-042-046-047-312200-
NORTHEAST TENNESSEE

CITY           SKY/WX    TMP DP  RH WIND       PRES   REMARKS
TRI CITIES     PTSUNNY   85  61  44 N3        30.11F
ELIZABETHTON   MOCLDY    82  63  51 NE5       30.10F
$$

TNZ012-013-036-069-073-074-312200-
CENTRAL EAST TENNESSEE

CITY           SKY/WX    TMP DP  RH WIND       PRES   REMARKS
KNOXVILLE      PTSUNNY   86  61  42 E6        30.08F
OAK RIDGE      FAIR      85  63  47 VRB6      30.10F
GATLINBURG     CLEAR     86  61  42 E7        30.08F
MORRISTOWN     CLEAR     84  63  48 CALM      30.11F
$$

TNZ083-085-099-312200-
SOUTHEAST TENNESSEE

CITY           SKY/WX    TMP DP  RH WIND       PRES   REMARKS
CHATTANOOGA    FAIR      86  65  49 VRB3      30.08F
$$

SKY/WX REPORTED AS FAIR MEANS FEW OR NO CLOUDS BELOW
12 THOUSAND FEET.




USA.gov is the U.S. government's official web portal to all federal, state and local government web resources and services.